Weather History for KCEZ - October, 2011

Change the Weather History Date:

Saturday, October 29, 2011

  Actual Average Record
Temperature  
Mean Temperature 40 °F 44 °F  
Max Temperature 57 °F 60 °F 73 °F (2007)
Min Temperature 24 °F 27 °F 24 °F (1997)
Degree Days  
Heating Degree Days 24 21  
Month to date heating degree days 466  
Since 1 July heating degree days 638  
Cooling Degree Days 0 0  
Month to date cooling degree days 0  
Year to date cooling degree days 426  
Moisture  
Dew Point 25 °F    
Average Humidity 63    
Maximum Humidity 89    
Minimum Humidity 24    
Precipitation  
Precipitation 0.00 in 0.03 in 0.19 in (2013)
Month to date precipitation 1.14  
Year to date precipitation 11.36  
Sea Level Pressure  
Sea Level Pressure 30.22 in    
Wind  
Wind Speed 4 mph (ENE)    
Max Wind Speed 14 mph    
Max Gust Speed 18 mph    
Visibility 10 miles    
Events      
T = Trace of Precipitation, MM = Missing Value Source: NWS Daily Summary

Daily Weather History Graph

Daily Weather History Graph

Search for Another Location

Airport or City:

Trip Planner

Search our weather history database for the weather conditions in past years. The results will help you decide how hot, cold, wet, or windy it might be!

Date:

Astronomy

Oct. 29, 2011 Rise Set
Actual Time 7:35 AM MDT 6:20 PM MDT
Civil Twilight 7:08 AM MDT 6:46 PM MDT
Nautical Twilight 6:38 AM MDT 7:17 PM MDT
Astronomical Twilight 6:07 AM MDT 7:47 PM MDT
Moon 10:56 AM MDT (10/29) 8:51 PM MDT (10/29)
Length of Visible Light 11h 37m
Length of Day
10h 44m
Waxing Crescent, 12% of the Moon is Illuminated
Oct 29
Waxing Crescent
Nov 2
First Quarter
Nov 10
Full
Nov 18
Last Quarter
Nov 24
New

Hourly Weather History & Observations

Time (MDT) Temp. Windchill Dew Point Humidity Pressure Visibility Wind Dir Wind Speed Gust Speed Precip Events Conditions
12:53 AM 28.0 °F 21.7 °F 25.0 °F 88% 30.27 in 10.0 mi ESE 5.8 mph - N/A   Clear
1:53 AM 27.0 °F - 24.1 °F 89% 30.26 in 10.0 mi Calm Calm - N/A   Clear
2:53 AM 25.0 °F - 21.9 °F 88% 30.25 in 10.0 mi Calm Calm - N/A   Clear
4:53 AM 26.1 °F - 21.9 °F 84% 30.24 in 10.0 mi Calm Calm - N/A   Clear
5:53 AM 24.1 °F 17.0 °F 21.0 °F 88% 30.27 in 10.0 mi ENE 5.8 mph - N/A   Clear
6:53 AM 25.0 °F 19.3 °F 21.9 °F 88% 30.29 in 10.0 mi ENE 4.6 mph - N/A   Clear
7:53 AM 24.1 °F - 21.0 °F 88% 30.32 in 10.0 mi Calm Calm - N/A   Clear
8:53 AM 33.1 °F 30.0 °F 27.0 °F 78% 30.30 in 10.0 mi NE 3.5 mph - N/A   Clear
9:53 AM 39.0 °F - 28.0 °F 65% 30.28 in 10.0 mi Calm Calm - N/A   Clear
11:53 AM 51.1 °F - 26.1 °F 38% 30.21 in 10.0 mi WSW 5.8 mph - N/A   Clear
12:53 PM 54.0 °F - 30.0 °F 40% 30.18 in 10.0 mi SSW 9.2 mph - N/A   Clear
1:53 PM 55.0 °F - 30.0 °F 38% 30.16 in 10.0 mi SW 9.2 mph - N/A   Clear
2:53 PM 57.0 °F - 19.9 °F 24% 30.14 in 10.0 mi West 11.5 mph - N/A   Clear
3:53 PM 55.9 °F - 21.0 °F 26% 30.13 in 10.0 mi West 10.4 mph - N/A   Clear
4:53 PM 55.9 °F - 23.0 °F 28% 30.12 in 10.0 mi WNW 13.8 mph 18.4 mph N/A   Clear
6:53 PM 51.1 °F - 21.9 °F 32% 30.17 in 10.0 mi Calm Calm - N/A   Clear
7:53 PM 43.0 °F 40.3 °F 27.0 °F 53% 30.22 in 10.0 mi ENE 4.6 mph - N/A   Clear
8:53 PM 39.9 °F 37.8 °F 27.0 °F 60% 30.21 in 10.0 mi East 3.5 mph - N/A   Clear
9:53 PM 36.0 °F 32.1 °F 26.1 °F 67% 30.19 in 10.0 mi East 4.6 mph - N/A   Clear
10:53 PM 34.0 °F 28.8 °F 26.1 °F 73% 30.19 in 10.0 mi ENE 5.8 mph - N/A   Clear
11:53 PM 30.9 °F 25.2 °F 25.0 °F 79% 30.18 in 10.0 mi East 5.8 mph - N/A   Clear